Location: Trois-Rivi�res
(46.3500°N, 72.5500°W)
Time: 14:49:49
(UTC-04:00)

Cosmos 1544 - Visible Passes

Search period start: 28 March 2015 00:00
Search period end: 07 April 2015 00:00
Orbit: 492 x 515 km, 82.5° (Epoch: 28 March)

Date Brightness Start Highest point End Pass type
(mag) Time Alt. Az. Time Alt. Az. Time Alt. Az.
28 Mar 4.8 19:50:27 10° ESE 19:52:28 15° E 19:54:39 10° NE visible
28 Mar 4.4 21:24:08 10° SSW 21:27:38 40° WNW 21:31:11 10° N visible
29 Mar 3.8 21:05:05 10° SSW 21:08:42 55° WNW 21:12:23 10° N visible
30 Mar 3.2 20:46:04 10° SSW 20:49:46 76° W 20:53:31 10° N visible
31 Mar 3.0 20:27:10 10° S 20:30:51 78° E 20:34:35 10° NNE visible
01 Apr 3.2 20:08:18 10° S 20:11:56 56° E 20:15:36 10° NNE visible
01 Apr 6.5 21:46:23 10° W 21:47:52 12° WNW 21:49:12 10° NW visible
02 Apr 3.5 19:49:32 10° SSE 19:53:01 41° E 19:56:34 10° NNE visible
02 Apr 6.3 21:26:28 10° WSW 21:28:46 15° WNW 21:30:59 10° NNW visible
03 Apr 6.0 21:06:52 10° WSW 21:09:41 20° WNW 21:12:27 10° NNW visible
04 Apr 5.6 20:47:26 10° SW 20:50:37 25° WNW 20:53:46 10° NNW visible
05 Apr 5.1 20:28:07 10° SW 20:31:32 34° WNW 20:34:59 10° N visible
06 Apr 4.4 20:08:54 10° SSW 20:12:29 45° WNW 20:16:06 10° N visible
